Weather History for Martha's Vineyard, MA

Change the Weather History Date:

Wednesday, November 7, 2012

  Actual Average Record
Temperature  
Mean Temperature 42 °F -  
Max Temperature 46 °F 54 °F 69 °F (1948)
Min Temperature 39 °F 38 °F 21 °F (2002)
Degree Days  
Heating Degree Days 22    
Moisture  
Dew Point 37 °F    
Average Humidity 79    
Maximum Humidity 93    
Minimum Humidity 58    
Precipitation  
Precipitation 0.83 in - - ()
Sea Level Pressure  
Sea Level Pressure 29.79 in    
Wind  
Wind Speed 26 mph (NE)    
Max Wind Speed 41 mph    
Max Gust Speed 59 mph    
Visibility 8 miles    
Events Rain    
Averages and records for this station are not official NWS values.
T = Trace of Precipitation, MM = Missing Value Source: NWS Daily Summary

Daily Weather History Graph

Daily Weather History Graph

Search for Another Location

Airport:

Trip Planner

Search our weather history database for the weather conditions in past years. The results will help you decide how hot, cold, wet, or windy it might be!

Date:

Astronomy

Nov. 07, 2012 Rise Set
Actual Time 6:21 AM EST 4:30 PM EST
Civil Twilight 5:52 AM EST 4:59 PM EST
Nautical Twilight 5:19 AM EST 5:32 PM EST
Astronomical Twilight 4:47 AM EST 6:04 PM EST
Moon No Moon Rise 12:41 PM EST (11/7)
Length of Visible Light 11h 06m
Length of Day
10h 08m
Last Quarter, 43% of the Moon is Illuminated
Nov 7
Last Quarter
Nov 13
New
Nov 20
First Quarter
Nov 28
Full
Dec 6
Last Quarter

Hourly Weather History & Observations

Time (EST) Temp. Windchill Dew Point Humidity Pressure Visibility Wind Dir Wind Speed Gust Speed Precip Events Conditions
12:53 AM 45.0 °F 37.9 °F 30.9 °F 58% 30.06 in 10.0 mi ENE 16.1 mph 23.0 mph N/A   Mostly Cloudy
1:53 AM 45.0 °F 37.1 °F 34.0 °F 65% 30.05 in 10.0 mi NE 19.6 mph 27.6 mph N/A   Overcast
2:53 AM 45.0 °F 37.4 °F 34.0 °F 65% 30.05 in 10.0 mi ENE 18.4 mph 23.0 mph N/A   Overcast
3:53 AM 45.0 °F 37.6 °F 34.0 °F 65% 30.00 in 10.0 mi NE 17.3 mph 27.6 mph N/A   Overcast
4:43 AM 44.6 °F 35.9 °F 33.8 °F 66% 29.96 in 10.0 mi NE 23.0 mph 33.4 mph N/A   Overcast
4:53 AM 45.0 °F 36.0 °F 34.0 °F 65% 29.96 in 10.0 mi NE 25.3 mph 34.5 mph N/A   Mostly Cloudy
5:53 AM 45.0 °F 36.6 °F 35.1 °F 68% 29.95 in 10.0 mi NE 21.9 mph 34.5 mph N/A   Overcast
6:20 AM 44.6 °F 35.1 °F 35.6 °F 71% 29.92 in 10.0 mi NE 27.6 mph 35.7 mph N/A   Overcast
6:27 AM 44.6 °F 34.7 °F 35.6 °F 71% 29.91 in 10.0 mi NE 29.9 mph 42.6 mph N/A   Overcast
6:53 AM 45.0 °F 36.0 °F 35.1 °F 68% 29.90 in 10.0 mi NE 25.3 mph 36.8 mph N/A   Overcast
7:53 AM 46.0 °F 36.9 °F 37.0 °F 71% 29.88 in 10.0 mi NE 28.8 mph 47.2 mph N/A   Overcast
8:53 AM 46.0 °F 37.0 °F 39.0 °F 76% 29.87 in 10.0 mi NE 27.6 mph 43.7 mph 0.00 in Rain Light Rain
9:53 AM 46.0 °F 37.2 °F 37.9 °F 73% 29.83 in 10.0 mi NE 26.5 mph 48.3 mph 0.00 in   Overcast
10:53 AM 44.1 °F 34.2 °F 39.0 °F 82% 29.80 in 6.0 mi NE 28.8 mph 48.3 mph 0.07 in Rain Light Rain
11:33 AM 44.6 °F 35.1 °F 37.4 °F 76% 29.81 in 7.0 mi NE 27.6 mph 46.0 mph 0.02 in Rain Light Rain
11:53 AM 44.1 °F 33.8 °F 37.9 °F 79% 29.79 in 8.0 mi NE 31.1 mph 43.7 mph 0.03 in Rain Light Rain
12:53 PM 43.0 °F 31.5 °F 37.0 °F 80% 29.73 in 4.0 mi NE 36.8 mph 54.1 mph 0.08 in Rain Light Rain
1:53 PM 42.1 °F 31.0 °F 37.0 °F 82% 29.71 in 5.0 mi NE 32.2 mph 54.1 mph 0.17 in Rain Light Rain
2:35 PM 42.8 °F 30.7 °F 37.4 °F 81% 29.71 in 6.0 mi NE 41.4 mph 58.7 mph 0.04 in   Haze
2:53 PM 41.0 °F 29.0 °F 37.0 °F 86% 29.70 in 6.0 mi NE 35.7 mph 54.1 mph 0.06 in Rain Light Rain
3:03 PM 41.0 °F 28.5 °F 37.4 °F 87% 29.69 in 8.0 mi NE 39.1 mph 52.9 mph 0.01 in Rain Light Rain
3:53 PM 41.0 °F 29.0 °F 37.0 °F 86% 29.68 in 10.0 mi NE 35.7 mph 57.5 mph 0.06 in Rain Light Rain
4:53 PM 41.0 °F 28.8 °F 37.9 °F 89% 29.66 in 7.0 mi NE 36.8 mph 51.8 mph 0.09 in Rain Light Rain
5:14 PM 39.2 °F 26.0 °F 37.4 °F 93% 29.65 in 5.0 mi NE 39.1 mph 54.1 mph 0.07 in Rain Rain
5:53 PM 41.0 °F 29.8 °F 37.9 °F 89% 29.66 in 10.0 mi NE 29.9 mph 55.2 mph 0.10 in Rain Light Rain
6:53 PM 41.0 °F 30.0 °F 37.9 °F 89% 29.63 in 4.0 mi NNE 28.8 mph 49.5 mph 0.01 in Rain Light Rain
7:53 PM 41.0 °F 30.0 °F 39.0 °F 93% 29.61 in 3.0 mi NNE 28.8 mph 55.2 mph 0.05 in   Overcast
8:53 PM 41.0 °F 29.7 °F 39.0 °F 93% 29.58 in 5.0 mi NNE 31.1 mph 48.3 mph 0.01 in Rain Light Rain
9:53 PM 42.1 °F 31.7 °F 39.9 °F 92% 29.56 in 5.0 mi NNE 27.6 mph 47.2 mph 0.06 in Rain Light Rain
10:53 PM 42.1 °F 31.1 °F 39.9 °F 92% 29.54 in 7.0 mi NNE 31.1 mph 43.7 mph 0.02 in Rain Light Rain
11:53 PM 43.0 °F 32.2 °F 41.0 °F 93% 29.49 in 9.0 mi NNE 32.2 mph 50.6 mph 0.02 in Rain Light Rain